Weather reports worldwide

Advertisment
Rostock-Warnemünde, Germany (10170): temperature & dewpoint: 16.02.2019 22:00:00 - 22.02.2019 22:00:00 (CET)Rostock-Warnemünde, Germany (10170): temperature 5cm & temperature -5cm: 16.02.2019 22:00:00 - 22.02.2019 22:00:00 (CET)Rostock-Warnemünde, Germany (10170): temperature -20cm & temperature -100cm: 16.02.2019 22:00:00 - 22.02.2019 22:00:00 (CET)Rostock-Warnemünde, Germany (10170): wind speed & gusts: 16.02.2019 22:00:00 - 22.02.2019 22:00:00 (CET)Rostock-Warnemünde, Germany (10170): wind direction: 16.02.2019 22:00:00 - 22.02.2019 22:00:00 (CET)Rostock-Warnemünde, Germany (10170): reduced air pressure: 16.02.2019 22:00:00 - 22.02.2019 22:00:00 (CET)Rostock-Warnemünde, Germany (10170): visibility: 16.02.2019 22:00:00 - 22.02.2019 22:00:00 (CET)Rostock-Warnemünde, Germany (10170): sunshine duration: 16.02.2019 22:00:00 - 22.02.2019 22:00:00 (CET)Rostock-Warnemünde, Germany (10170): precipitation: 16.02.2019 22:00:00 - 22.02.2019 22:00:00 (CET)
Date & Time tt [°C] td [°C] tt 5cm [°C] tt -5cm [°C] tt -20cm [°C] tt -100cm [°C] ff [km/h] ff [kn] fx [km/h] fx [kn] dd ppp [hPa] vv [km] sd [min] rr [mm]
22.02.2019 22:00:00 0,0 -4,4 -0,7 0,5 3,8 5,8 15 8 24 13 SE 1044,5 44 0 0,0
22.02.2019 21:00:00 -0,1 -4,5 -1,0 0,6 4,1 5,8 17 9 23 13 SE 1044,0 49 0 0,0
22.02.2019 20:00:00 0,3 -4,8 -0,7 0,5 4,6 5,8 11 6 21 11 ESE 1043,8 56 0 0,0
22.02.2019 19:00:00 0,8 -5,5 -0,3 1,1 5,1 5,8 12 7 22 12 ESE 1043,7 57 0 0,0
22.02.2019 18:00:00 1,6 -5,1 0,6 2,2 5,5 5,8 10 5 24 13 E 1043,4 70 0 0,0
22.02.2019 17:00:00 2,8 -4,6 2,2 3,7 5,9 5,8 11 6 25 14 ESE 1042,8 50 36 0,0
22.02.2019 16:00:00 3,9 -3,9 3,7 5,7 5,9 5,8 11 6 24 13 E 1042,0 47 60 0,0
22.02.2019 15:00:00 4,2 -3,0 5,6 7,0 5,7 5,8 12 7 26 14 ESE 1041,9 21 58 0,0
22.02.2019 14:00:00 4,5 -2,5 6,4 7,4 5,4 5,8 14 7 29 15 E 1041,4 12 60 0,0
22.02.2019 13:00:00 4,4 -3,1 6,3 7,2 4,9 5,8 16 9 32 17 SE 1041,1 9 60 0,0
22.02.2019 12:00:00 4,2 -3,3 6,1 5,8 4,6 5,8 16 9 30 16 ESE 1040,8 17 60 0,0
22.02.2019 11:00:00 3,4 -3,1 4,1 3,6 4,5 5,8 13 7 32 17 E 1040,2 30 23 0,0
22.02.2019 10:00:00 3,5 -2,2 3,5 2,9 4,5 5,8 11 6 28 15 E 1039,2 41 33 0,0
22.02.2019 09:00:00 2,6 -2,2 2,0 2,6 4,7 5,8 11 6 29 16 E 1038,4 49 1 0,0
22.02.2019 08:00:00 2,3 -1,1 1,8 2,7 4,9 5,8 11 6 26 14 E 1037,1 43 0 0,0
22.02.2019 07:00:00 2,4 -0,6 1,8 2,9 5,1 5,8 13 7 36 20 E 1035,4 48 0 0,0
22.02.2019 06:00:00 2,6 -0,2 2,1 3,3 5,3 5,8 13 7 29 16 E 1034,0 50 0 0,0
22.02.2019 05:00:00 2,8 0,8 2,4 3,7 5,5 5,8 11 6 28 15 ENE 1032,9 46 0 0,0
22.02.2019 04:00:00 2,9 1,3 2,7 4,1 5,7 5,8 14 7 30 16 ENE 1031,3 37 0 0,0
22.02.2019 03:00:00 3,4 2,2 3,3 4,6 5,9 5,7 13 7 34 18 E 1029,9 36 0 0,0
22.02.2019 02:00:00 4,4 4,3 4,3 5,0 6,0 5,7 21 11 32 17 NE 1028,3 10 0 0,0
22.02.2019 01:00:00 4,5 4,4 4,6 5,5 6,1 5,7 23 12 39 21 NNE 1027,0 3,0 0 0,0
22.02.2019 00:00:00 4,9 4,9 5,0 5,7 6,2 5,7 23 12 37 20 WNW 1025,7 0,5 0 0,1
21.02.2019 23:00:00 5,5 5,5 5,5 5,8 6,3 5,7 31 17 38 21 WNW 1024,9 1,7 0 0,6
21.02.2019 22:00:00 5,3 5,1 5,3 5,9 6,4 5,7 29 16 34 18 WNW 1023,9 0,8 0 0,1
21.02.2019 21:00:00 5,7 5,3 5,6 6,2 6,5 5,7 27 15 35 19 W 1023,2 4,7 0 0,0
21.02.2019 20:00:00 6,6 6,1 6,3 6,4 6,6 5,7 27 14 38 21 W 1022,4 7 0 0,1
21.02.2019 19:00:00 6,2 5,7 6,0 6,5 6,6 5,7 27 14 39 21 W 1022,1 2,6 0 0,1
21.02.2019 18:00:00 7,1 6,1 6,7 6,9 6,7 5,7 26 14 41 22 W 1021,5 6 0 0,4
21.02.2019 17:00:00 7,0 6,2 6,7 7,1 6,7 5,7 27 15 42 23 W 1021,4 4,5 0 0,1
21.02.2019 16:00:00 7,8 6,5 7,3 7,3 6,7 5,7 23 12 35 19 W 1021,3 5 0 0,0
21.02.2019 15:00:00 7,0 6,5 6,9 7,2 6,7 5,7 21 11 35 19 W 1021,0 1,6 0 0,3
21.02.2019 14:00:00 6,0 5,2 6,0 7,1 6,7 5,7 26 14 44 24 W 1021,2 1,8 0 0,2
21.02.2019 13:00:00 7,8 5,5 7,7 7,7 6,7 5,7 27 15 44 24 W 1020,6 7 0 0,0
21.02.2019 12:00:00 8,7 5,7 8,6 8,3 6,5 5,6 20 11 35 19 W 1020,6 8 0 0,0
21.02.2019 11:00:00 8,8 5,6 9,0 8,4 6,2 5,6 19 11 41 22 WSW 1020,5 9 30 0,0
21.02.2019 10:00:00 8,2 5,3 7,8 7,4 6,0 5,6 21 11 36 19 SW 1020,0 8 24 0,0
21.02.2019 09:00:00 7,4 5,2 6,5 6,2 5,9 5,6 16 8 31 17 SW 1020,5 7 0 0,2
21.02.2019 08:00:00 7,0 5,5 6,3 6,0 5,9 5,6 16 9 30 16 WSW 1020,4 3,6 0 0,5
21.02.2019 07:00:00 6,9 5,4 6,2 5,9 6,0 5,6 16 9 29 16 SW 1020,3 3,3 0 1,3
21.02.2019 06:00:00 7,0 5,2 6,1 6,0 6,0 5,6 16 9 35 19 SW 1020,5 4,3 0 0,6
21.02.2019 05:00:00 7,2 5,0 6,2 6,0 6,0 5,6 16 8 37 20 SW 1020,6 6 0 0,5
21.02.2019 04:00:00 7,6 4,6 6,5 6,0 6,0 5,6 16 9 34 19 SW 1020,4 8 0 0,1
21.02.2019 03:00:00 7,9 4,5 6,7 6,0 6,0 5,6 14 8 26 14 SW 1020,4 13 0 0,2
21.02.2019 02:00:00 7,8 4,6 6,5 6,1 6,1 5,6 12 7 24 13 SW 1020,6 8 0 0,0
21.02.2019 01:00:00 7,7 4,6 6,4 6,1 6,1 5,6 13 7 26 14 SW 1020,7 9 0 0,1
21.02.2019 00:00:00 7,1 5,4 6,3 6,1 6,1 5,6 12 6 23 12 SSW 1020,7 6 0 0,0
20.02.2019 23:00:00 6,9 5,8 6,3 6,2 6,2 5,6 14 8 23 12 SSW 1020,7 3,8 0 0,2
20.02.2019 22:00:00 6,8 5,9 6,3 6,2 6,2 5,6 13 7 26 14 SSW 1021,1 2,9 0 0,3
20.02.2019 21:00:00 7,3 5,2 6,6 6,3 6,3 5,6 10 6 25 13 SW 1021,3 4,0 0 0,0
20.02.2019 20:00:00 7,6 4,6 6,8 6,4 6,4 5,6 11 6 22 12 SW 1021,2 11 0 0,0
20.02.2019 19:00:00 7,9 4,2 7,1 6,6 6,5 5,6 11 6 30 16 WSW 1020,9 14 0 0,0
20.02.2019 18:00:00 7,9 4,6 7,4 7,1 6,6 5,6 15 8 34 18 W 1020,6 12 0 0,0
20.02.2019 17:00:00 8,0 4,9 7,8 7,4 6,6 5,6 12 6 35 19 WSW 1020,1 11 0 0,0
20.02.2019 16:00:00 7,9 4,7 7,9 7,8 6,5 5,6 20 11 40 22 W 1020,1 11 0 0,0
20.02.2019 15:00:00 7,9 4,7 8,3 8,3 6,4 5,6 26 14 40 22 W 1020,0 10 0 0,0
20.02.2019 14:00:00 8,1 4,5 8,7 8,7 6,1 5,6 22 12 35 19 W 1019,7 11 9 0,0
20.02.2019 13:00:00 8,3 4,2 9,3 8,8 5,7 5,6 24 13 40 22 W 1019,4 13 16 0,0
20.02.2019 12:00:00 8,1 3,9 9,3 7,7 5,3 5,5 20 11 33 18 W 1019,3 11 44 0,0
20.02.2019 11:00:00 6,9 3,9 7,1 6,1 5,1 5,5 21 12 40 21 W 1018,9 9 25 0,0
20.02.2019 10:00:00 6,8 3,9 7,1 5,6 5,0 5,5 22 12 35 19 W 1018,3 12 0 0,0
20.02.2019 09:00:00 6,3 4,0 6,1 4,8 5,0 5,5 16 9 42 23 WSW 1017,4 12 0 0,0
20.02.2019 08:00:00 6,3 3,9 5,6 4,6 5,0 5,5 22 12 44 24 W 1016,6 12 0 0,0
20.02.2019 07:00:00 6,2 4,0 5,5 4,6 5,0 5,5 24 13 43 23 W 1016,0 13 0 0,0
20.02.2019 06:00:00 6,2 4,0 5,4 4,6 5,0 5,5 28 15 49 27 W 1015,6 15 0 0,0
20.02.2019 05:00:00 6,2 3,5 5,7 4,7 5,0 5,5 26 14 50 27 W 1015,4 18 0 0,0
20.02.2019 04:00:00 6,1 2,9 5,6 4,6 5,0 5,5 33 18 49 26 W 1015,1 25 0 0,0
20.02.2019 03:00:00 6,0 3,5 5,5 4,6 5,0 5,5 29 15 52 28 W 1015,0 19 0 0,0
20.02.2019 02:00:00 6,1 3,4 5,7 4,5 5,0 5,5 36 19 51 28 W 1014,8 25 0 0,0
20.02.2019 01:00:00 5,8 3,7 5,1 4,0 5,1 5,5 27 15 49 27 W 1014,4 17 0 0,0
20.02.2019 00:00:00 6,1 3,4 5,0 3,9 5,3 5,5 29 15 49 26 WSW 1014,0 23 0 0,0
19.02.2019 23:00:00 6,1 3,4 5,0 4,0 5,5 5,5 23 13 48 26 WSW 1013,7 27 0 0,0
19.02.2019 22:00:00 5,7 3,3 4,7 4,3 5,7 5,5 23 12 50 27 WSW 1013,5 29 0 0,0
19.02.2019 21:00:00 6,2 3,5 5,0 4,7 5,9 5,5 26 14 53 29 WSW 1013,5 33 0 0,0
19.02.2019 20:00:00 6,4 3,7 5,6 5,3 6,0 5,5 25 13 44 24 W 1013,0 28 0 0,0
19.02.2019 19:00:00 6,0 3,5 5,3 5,6 6,2 5,5 30 16 52 28 W 1012,8 30 0 0,0
19.02.2019 18:00:00 7,1 4,0 6,3 6,1 6,3 5,5 29 16 47 25 W 1012,2 26 0 0,0
19.02.2019 17:00:00 7,4 4,2 7,1 6,8 6,4 5,5 22 12 49 26 WSW 1011,7 30 0 0,0
19.02.2019 16:00:00 7,6 4,7 7,1 7,4 6,4 5,5 22 12 49 26 WSW 1011,7 17 0 0,0
19.02.2019 15:00:00 8,2 4,8 8,8 8,2 6,2 5,5 23 12 48 26 WSW 1011,7 21 8 0,1
19.02.2019 14:00:00 9,0 3,6 9,7 9,0 5,9 5,5 22 12 52 28 WSW 1011,2 20 23 0,0
19.02.2019 13:00:00 9,2 4,0 10,7 8,7 5,5 5,5 22 12 50 27 WSW 1011,3 9 57 0,0
19.02.2019 12:00:00 7,8 4,0 8,6 6,6 5,2 5,5 21 12 44 24 SW 1011,6 13 6 0,0
19.02.2019 11:00:00 7,4 4,4 7,0 6,2 5,0 5,5 20 11 38 21 WSW 1011,8 13 1 0,0
19.02.2019 10:00:00 7,0 4,7 6,3 5,6 4,9 5,5 20 11 39 21 SW 1011,6 10 0 0,0
19.02.2019 09:00:00 6,3 4,9 5,6 5,0 4,8 5,4 16 9 35 19 SW 1011,4 6 0 0,2
19.02.2019 08:00:00 6,3 4,8 5,6 4,7 4,7 5,4 20 11 39 21 WSW 1011,3 3,5 0 0,2
19.02.2019 07:00:00 6,9 2,9 6,3 4,3 4,7 5,4 16 8 31 17 SW 1010,5 10 0 0,0
19.02.2019 06:00:00 6,1 1,5 5,5 4,1 4,8 5,4 11 6 19 10 S 1010,1 12 0 0,0
19.02.2019 05:00:00 5,9 1,3 5,0 3,8 4,8 5,4 14 8 18 10 S 1010,3 13 0 0,0
19.02.2019 04:00:00 6,5 1,3 5,4 3,8 5,0 5,4 14 8 17 9 S 1010,6 14 0 0,0
19.02.2019 03:00:00 6,8 1,5 5,5 3,9 5,1 5,4 14 8 17 9 S 1011,4 13 0 0,0
19.02.2019 02:00:00 7,1 1,7 5,8 4,0 5,2 5,4 10 5 20 11 S 1011,9 14 0 0,0
19.02.2019 01:00:00 7,6 1,8 6,0 4,0 5,3 5,4 12 6 22 12 S 1012,4 15 0 0,0
19.02.2019 00:00:00 7,6 2,0 5,9 4,1 5,5 5,4 12 7 21 11 S 1012,9 14 0 0,0
18.02.2019 23:00:00 7,7 2,3 5,7 4,3 5,8 5,4 12 6 18 10 S 1013,4 14 0 0,0
18.02.2019 22:00:00 8,1 2,4 6,5 4,7 6,0 5,4 12 7 20 11 S 1013,8 14 0 0,0
18.02.2019 21:00:00 8,6 2,9 6,5 4,9 6,3 5,4 8 5 16 9 S 1014,1 14 0 0,0
18.02.2019 20:00:00 9,6 3,2 7,2 5,5 6,6 5,4 8 4 18 10 SSE 1014,4 12 0 0,0
18.02.2019 19:00:00 9,5 3,4 5,2 6,0 7,0 5,4 9 5 15 8 S 1015,2 11 0 0,0
18.02.2019 18:00:00 10,8 4,2 5,0 7,3 7,2 5,4 4 2 14 7 SSE 1015,7 12 0 0,0
18.02.2019 17:00:00 12,9 4,0 10,8 8,7 7,3 5,4 7 4 21 11 S 1015,5 15 40 0,0
18.02.2019 16:00:00 13,5 3,5 12,2 10,1 7,0 5,4 13 7 25 14 SSW 1016,1 14 60 0,0
18.02.2019 15:00:00 13,4 3,6 13,8 11,6 6,5 5,4 12 7 20 11 SSW 1016,4 16 60 0,0
18.02.2019 14:00:00 13,4 3,9 15,1 11,6 5,8 5,4 10 6 18 10 S 1017,0 9 60 0,0
18.02.2019 13:00:00 12,3 3,7 14,6 10,4 5,0 5,3 9 5 14 8 SW 1017,9 11 60 0,0
18.02.2019 12:00:00 11,0 2,8 12,4 8,0 4,3 5,3 10 5 16 9 SSW 1018,5 9 60 0,0
18.02.2019 11:00:00 8,7 1,9 10,2 5,5 3,9 5,3 9 5 17 9 SSW 1018,9 11 60 0,0
18.02.2019 10:00:00 6,2 1,6 6,7 3,2 3,7 5,3 11 6 18 10 S 1018,8 9 60 0,0
18.02.2019 09:00:00 4,4 1,2 3,6 1,9 3,8 5,3 13 7 20 11 S 1018,9 7 54 0,0
18.02.2019 08:00:00 3,8 1,1 2,9 1,6 4,0 5,3 14 8 18 10 S 1018,8 7 0 0,0
18.02.2019 07:00:00 4,0 1,4 2,7 1,7 4,2 5,3 14 7 22 12 S 1018,4 7 0 0,0
18.02.2019 06:00:00 3,7 1,5 2,6 1,9 4,4 5,3 14 8 19 11 S 1018,8 6 0 0,0
18.02.2019 05:00:00 4,4 1,7 3,2 2,3 4,7 5,3 12 7 22 12 S 1018,9 7 0 0,0
18.02.2019 04:00:00 4,6 2,0 3,1 2,5 5,0 5,2 11 6 21 11 SSE 1019,1 7 0 0,0
18.02.2019 03:00:00 5,5 2,4 4,1 3,0 5,2 5,2 10 5 23 12 SSE 1019,6 8 0 0,0
18.02.2019 02:00:00 6,0 2,9 4,7 3,4 5,5 5,2 11 6 21 11 SSE 1020,1 8 0 0,0
18.02.2019 01:00:00 5,9 3,5 4,4 3,7 5,7 5,2 9 5 20 11 SSE 1020,4 8 0 0,0
18.02.2019 00:00:00 6,4 4,0 5,2 4,3 6,0 5,2 15 8 26 14 SSE 1020,1 8 0 0,0
17.02.2019 23:00:00 6,8 4,8 5,7 4,6 6,2 5,2 18 10 24 13 SE 1020,8 8 0 0,0
17.02.2019 22:00:00 7,2 5,0 5,7 5,1 6,5 5,2 10 5 23 12 SE 1021,2 8 0 0,0
17.02.2019 21:00:00 8,3 5,6 7,0 5,6 6,8 5,2 16 8 28 15 SSE 1021,3 9 0 0,0
17.02.2019 20:00:00 8,2 5,6 7,0 5,9 7,1 5,1 16 9 24 13 SE 1021,4 8 0 0,0
17.02.2019 19:00:00 8,6 6,0 6,7 6,4 7,4 5,1 12 6 16 9 SE 1021,7 9 0 0,0
17.02.2019 18:00:00 9,5 6,4 7,4 7,3 7,7 5,1 8 5 16 8 ESE 1021,8 10 0 0,0
17.02.2019 17:00:00 11,2 6,5 9,8 8,8 7,8 5,1 8 4 18 10 SSE 1021,9 12 40 0,0
17.02.2019 16:00:00 11,6 6,4 10,8 10,4 7,7 5,1 10 6 18 10 SSE 1022,3 13 53 0,0
17.02.2019 15:00:00 11,8 6,4 11,7 11,3 7,3 5,1 7 4 19 11 S 1022,9 14 28 0,0
17.02.2019 14:00:00 11,2 6,2 11,8 10,5 7,0 5,1 10 5 16 9 S 1023,3 15 1 0,0
17.02.2019 13:00:00 10,3 6,0 10,7 9,5 6,7 5,1 9 5 14 7 SSW 1023,8 10 0 0,0
17.02.2019 12:00:00 10,0 6,1 10,3 8,9 6,4 5,1 8 4 16 9 SSW 1024,2 12 0 0,0
17.02.2019 11:00:00 9,5 6,2 9,8 8,1 6,3 5,1 10 5 16 9 SSW 1024,2 12 0 0,0
17.02.2019 10:00:00 9,4 6,4 9,2 7,5 6,2 5,1 10 5 14 8 SSW 1024,2 12 0 0,0
17.02.2019 09:00:00 9,0 6,0 8,7 7,2 6,1 5,1 11 6 14 8 S 1024,0 11 0 0,0
17.02.2019 08:00:00 8,9 5,9 8,6 7,1 6,1 5,0 10 6 18 10 SSW 1023,6 10 0 0,0
17.02.2019 07:00:00 9,0 5,9 8,6 7,0 6,0 5,0 13 7 21 11 SSW 1023,3 10 0 0,0
17.02.2019 06:00:00 9,3 5,7 8,9 7,0 6,0 5,0 11 6 24 13 SSW 1023,1 10 0 0,0
17.02.2019 05:00:00 9,5 5,7 9,0 7,0 5,9 5,0 16 9 27 14 SW 1023,3 11 0 0,0
17.02.2019 04:00:00 9,6 5,9 9,1 7,0 5,9 5,0 12 6 25 13 SSW 1023,1 12 0 0,0
17.02.2019 03:00:00 10,0 5,9 9,3 6,9 5,8 5,0 10 5 21 12 SW 1023,4 13 0 0,0
17.02.2019 02:00:00 10,0 6,1 9,3 6,9 5,7 5,0 11 6 32 18 SW 1023,4 13 0 0,0
17.02.2019 01:00:00 8,9 5,3 8,5 6,7 5,6 5,0 21 11 40 22 W 1023,6 12 0 0,0
17.02.2019 00:00:00 9,9 5,4 9,1 6,4 5,6 5,0 18 10 31 17 W 1023,3 12 0 0,0
16.02.2019 23:00:00 8,7 3,9 8,2 5,9 5,6 5,0 13 7 20 11 SSW 1023,1 12 0 0,0
16.02.2019 22:00:00 9,2 3,7 8,1 6,0 5,7 5,0 12 7 25 14 SW 1023,1 14 0 0,0

tt = temperature
td = dewpoint
tt 5cm = temperature 5cm
tt -5cm = temperature -5cm
tt -20cm = temperature -20cm
tt -100cm = temperature -100cm
ff = wind speed
fx = gusts
dd = wind direction
ppp = reduced air pressure
vv = visibility
sd = sunshine duration
rr = precipitation

Next stations